Location: Unspecified
(0.0000°N, 0.0000°E)
Time: 07:48:33
(UTC+00:00)

STARLINK-2711 - Pass Details

Date: 12 June 2021
Orbit: 348 x 350 km, 53.0° (Epoch: 20 June)

Event Time Altitude Azimuth Distance (km) Brightness Sun altitude
Exits shadow 04:35:51 - 154° (SSE) 1,394 5.7 -19.2°
Reaches altitude 10° 04:36:23 10° 145° (SE) 1,302 5.7 -19.1°
Maximum altitude 04:37:23 11° 125° (SE) 1,228 5.8 -18.9°
Drops below altitude 10° 04:38:23 10° 104° (ESE) 1,300 6.3 -18.7°
Sets 04:41:28 0° 67° (ENE) 2,137 8.4 -18.0°
